Location: Sungai Bunut
(2.6333°N, 113.7333°E)
Time: 10:33:33
(UTC+00:00)

SR - Pass Details

Date: 14 December 2023
Orbit: 574 x 867 km, 66.7° (Epoch: 01 March)

Event Time Altitude Azimuth Distance (km) Brightness Sun altitude
Rises 00:37:36 0° 213° (SSW) 3,045 ? 30.2°
Reaches altitude 10° 00:39:55 10° 219° (SW) 2,174 ? 30.7°
Maximum altitude 00:44:39 44° 291° (WNW) 1,031 ? 31.7°
Drops below altitude 10° 00:49:46 10° 2° (N) 2,352 ? 32.8°
Sets 00:52:23 0° 9° (N) 3,323 ? 33.4°
